Weather History for Truckee-Tahoe, CA

Change the Weather History Date:

Friday, December 7, 2012

  Actual Average Record
Temperature  
Mean Temperature 36 °F -  
Max Temperature 48 °F 41 °F 60 °F (2006)
Min Temperature 23 °F 19 °F -7 °F (1956)
Degree Days  
Heating Degree Days 30    
Moisture  
Dew Point 22 °F    
Average Humidity 82    
Maximum Humidity 100    
Minimum Humidity 22    
Precipitation  
Precipitation 0.00 in - - ()
Sea Level Pressure  
Sea Level Pressure 30.17 in    
Wind  
Wind Speed 1 mph (SE)    
Max Wind Speed 8 mph    
Max Gust Speed -    
Visibility 6 miles    
Events Fog    
Averages and records for this station are not official NWS values.
T = Trace of Precipitation, MM = Missing Value Source: NWS Daily Summary

Daily Weather History Graph

Daily Weather History Graph

Search for Another Location

Airport:

Trip Planner

Search our weather history database for the weather conditions in past years. The results will help you decide how hot, cold, wet, or windy it might be!

Date:

Astronomy

Dec. 07, 2012 Rise Set
Actual Time 7:07 AM PST 4:37 PM PST
Civil Twilight 6:37 AM PST 5:07 PM PST
Nautical Twilight 6:03 AM PST 5:40 PM PST
Astronomical Twilight 5:31 AM PST 6:13 PM PST
Moon 12:34 AM PST (12/7) 12:35 PM PST (12/7)
Length of Visible Light 10h 29m
Length of Day
9h 29m
Last Quarter, 37% of the Moon is Illuminated
Dec 7
Last Quarter
Dec 13
New
Dec 19
First Quarter
Dec 28
Full
Jan 4
Last Quarter

Hourly Weather History & Observations

Time (PST) Temp. Windchill Dew Point Humidity Pressure Visibility Wind Dir Wind Speed Gust Speed Precip Events Conditions
12:15 AM 26.6 °F 22.6 °F 24.8 °F 93% 30.20 in 0.2 mi East 3.5 mph - N/A Fog Light Freezing Fog
12:35 AM 26.6 °F - 24.8 °F 93% 30.21 in 0.2 mi Calm Calm - N/A Fog Light Freezing Fog
12:55 AM 26.6 °F - 24.8 °F 93% 30.21 in 0.2 mi Calm Calm - N/A Fog Light Freezing Fog
1:15 AM 26.6 °F - 24.8 °F 93% 30.20 in 0.2 mi Calm Calm - N/A Fog Light Freezing Fog
1:35 AM 26.6 °F - 24.8 °F 93% 30.20 in 0.2 mi Calm Calm - N/A Fog Light Freezing Fog
1:55 AM 26.6 °F - 24.8 °F 93% 30.21 in 0.2 mi Calm Calm - N/A Fog Light Freezing Fog
2:15 AM 26.6 °F - 24.8 °F 93% 30.21 in 0.2 mi Calm Calm - N/A Fog Light Freezing Fog
2:35 AM 26.6 °F - 24.8 °F 93% 30.21 in 0.2 mi Calm Calm - N/A Fog Light Freezing Fog
2:55 AM 26.6 °F - 24.8 °F 93% 30.21 in 0.2 mi Calm Calm - N/A Fog Light Freezing Fog
3:15 AM 26.6 °F - 24.8 °F 93% 30.21 in 0.2 mi Calm Calm - N/A Fog Light Freezing Fog
3:35 AM 26.6 °F - 24.8 °F 93% 30.21 in 0.2 mi Calm Calm - N/A Fog Light Freezing Fog
3:55 AM 24.8 °F - 24.8 °F 100% 30.20 in 0.2 mi Calm Calm - N/A Fog Light Freezing Fog
4:15 AM 24.8 °F 20.5 °F 24.8 °F 100% 30.20 in 0.2 mi North 3.5 mph - N/A Fog Light Freezing Fog
4:35 AM 24.8 °F - 24.8 °F 100% 30.21 in 0.2 mi Calm Calm - N/A Fog Light Freezing Fog
4:55 AM 24.8 °F - 24.8 °F 100% 30.21 in 0.2 mi Calm Calm - N/A Fog Light Freezing Fog
5:15 AM 24.8 °F - 23.0 °F 93% 30.21 in 0.2 mi Calm Calm - N/A Fog Light Freezing Fog
5:35 AM 24.8 °F - 23.0 °F 93% 30.21 in 0.2 mi Calm Calm - N/A Fog Light Freezing Fog
6:45 AM 23.0 °F - 23.0 °F 100% 30.21 in 0.2 mi Calm Calm - N/A Fog Light Freezing Fog
7:45 AM 23.0 °F - 23.0 °F 100% 30.21 in 0.2 mi Calm Calm - N/A Fog Light Freezing Fog
8:45 AM 24.8 °F - 23.0 °F 93% 30.23 in 0.2 mi Calm Calm - N/A Fog Light Freezing Fog
9:55 AM 26.6 °F - 24.8 °F 93% 30.23 in 0.2 mi Calm Calm - N/A Fog Light Freezing Fog
10:50 AM 28.4 °F - 26.6 °F 93% 30.22 in 0.5 mi Calm Calm - N/A Fog Light Freezing Fog
11:45 AM 32.0 °F 28.7 °F 32.0 °F 100% 30.19 in 10.0 mi North 3.5 mph - N/A   Scattered Clouds
12:50 PM 37.4 °F - 37.4 °F 100% 30.16 in 10.0 mi Calm Calm - N/A   Scattered Clouds
1:45 PM 44.6 °F - 32.0 °F 61% 30.14 in 10.0 mi Calm Calm - N/A   Mostly Cloudy
2:50 PM 48.2 °F - 10.4 °F 22% 30.13 in 10.0 mi NNW 3.5 mph - N/A   Mostly Cloudy
3:50 PM 48.2 °F - 10.4 °F 22% 30.13 in 10.0 mi Calm Calm - N/A   Mostly Cloudy
4:45 PM 35.6 °F - 24.8 °F 65% 30.14 in 10.0 mi Calm Calm - N/A   Scattered Clouds
4:55 PM 33.8 °F 28.6 °F 24.8 °F 70% 30.14 in 10.0 mi SE 5.8 mph - N/A   Clear
5:15 PM 32.0 °F 24.8 °F 23.0 °F 69% 30.14 in 10.0 mi SE 8.1 mph - N/A   Clear
5:35 PM 32.0 °F 26.4 °F 21.2 °F 64% 30.15 in 10.0 mi South 5.8 mph - N/A   Clear
5:55 PM 28.4 °F 23.3 °F 23.0 °F 80% 30.15 in 10.0 mi East 4.6 mph - N/A   Clear
6:15 PM 32.0 °F 27.5 °F 21.2 °F 64% 30.15 in 10.0 mi SSE 4.6 mph - N/A   Clear
6:35 PM 26.6 °F 22.6 °F 23.0 °F 86% 30.14 in 10.0 mi SSE 3.5 mph - N/A   Clear
6:55 PM 26.6 °F 21.2 °F 21.2 °F 80% 30.14 in 10.0 mi SSW 4.6 mph - N/A   Clear
7:15 PM 26.6 °F - 21.2 °F 80% 30.14 in 10.0 mi Calm Calm - N/A   Clear
7:35 PM 28.4 °F 22.2 °F 19.4 °F 69% 30.15 in 10.0 mi SSE 5.8 mph - N/A   Clear
7:55 PM 26.6 °F 20.0 °F 19.4 °F 74% 30.14 in 10.0 mi ESE 5.8 mph - N/A   Clear
8:15 PM 26.6 °F - 19.4 °F 74% 30.14 in 10.0 mi Calm Calm - N/A   Clear
8:35 PM 28.4 °F - 17.6 °F 64% 30.15 in 10.0 mi Calm Calm - N/A   Clear
8:55 PM 26.6 °F - 19.4 °F 74% 30.15 in 10.0 mi Calm Calm - N/A   Clear
9:15 PM 26.6 °F - 19.4 °F 74% 30.15 in 10.0 mi Calm Calm - N/A   Clear
9:35 PM 24.8 °F 20.5 °F 19.4 °F 80% 30.14 in 10.0 mi South 3.5 mph - N/A   Clear
9:55 PM 24.8 °F - 17.6 °F 74% 30.14 in 10.0 mi Calm Calm - N/A   Clear
10:15 PM 26.6 °F 21.2 °F 17.6 °F 69% 30.15 in 10.0 mi North 4.6 mph - N/A   Clear
10:35 PM 24.8 °F - 19.4 °F 80% 30.15 in 10.0 mi Calm Calm - N/A   Clear
10:55 PM 24.8 °F - 19.4 °F 80% 30.16 in 10.0 mi Calm Calm - N/A   Clear
11:15 PM 24.8 °F - 17.6 °F 74% 30.16 in 10.0 mi Calm Calm - N/A   Clear
11:35 PM 24.8 °F - 17.6 °F 74% 30.16 in 10.0 mi Calm Calm - N/A   Clear
11:55 PM 23.0 °F 17.0 °F 17.6 °F 80% 30.15 in 10.0 mi SSW 4.6 mph - N/A   Clear